Location: Unspecified
(47.9110°N, 14.3980°E)
Time: 06:18:54
(UTC+00:00)

SL-4 R/B - Pass Details

Date: 06 August 2020
Orbit: 428 x 665 km, 51.6° (Epoch: 23 September)

Event Time Altitude Azimuth Distance (km) Brightness Sun altitude
Rises 20:55:55 0° 233° (SW) 2,635 5.5 -19.2°
Reaches altitude 10° 20:58:12 10° 230° (SW) 1,709 4.4 -19.5°
Enters shadow 20:59:57 24° 222° (SW) 1,038 3.2 -19.6°
